Regional Weather Roundup
Issued by NWS

Home | Current Version | Previous Version | Graphics & Text | Print | Product List | Glossary On
Versions: 1 2 3 4 5 6 7 8 9 10 11 12 13 14 15 16 17 18 19 20 21 22 23 24 25 26 27 28 29 30 31 32 33 34 35 36 37 38 39 40 41 42 43 44 45 46 47 48 49 50
000
ASUS43 KMKX 061700
RWRWI

WISCONSIN REGIONAL WEATHER ROUNDUP
NATIONAL WEATHER SERVICE MILWAUKEE/SULLIVAN WI
1200 PM CDT WED MAY 06 2015

NOTE: "FAIR" INDICATES FEW OR NO CLOUDS BELOW 12,000 FEET WITH NO
SIGNIFICANT WEATHER AND/OR OBSTRUCTIONS TO VISIBILITY.

WIZ001-002-006>008-014>016-023>028-061800-
NORTHWEST WISCONSIN

CITY           SKY/WX    TMP DP  RH WIND       PRES   REMARKS
SUPERIOR ARPT  CLOUDY    44  38  77 NE13      30.10F
ASHLAND        LGT RAIN  53  53 100 NE5       30.12F FOG
HAYWARD        PTSUNNY   62  53  72 E12       30.09F
SIREN          CLOUDY    60  52  75 S9        30.07F
CUMBERLAND     CLOUDY    55  52  88 SE12      30.09F
RICE LAKE      CLOUDY    57  52  82 SE10      30.12F
CHETEK         CLOUDY    58  54  85 E12       30.10F
LADYSMITH      CLOUDY    58  53  84 SE9       30.14F
EAU CLAIRE     LGT RAIN  59  54  83 E7        30.09F
MENOMONIE      CLOUDY    60  55  86 E9        30.09F HAZE
NEW RICHMOND   CLOUDY    58  56  92 SE8       30.07R FOG
OSCEOLA        CLOUDY    59  59  97 SE10      30.08S FOG
$$

WIZ003>005-009-010-017-018-061800-
NORTH CENTRAL WISCONSIN

CITY           SKY/WX    TMP DP  RH WIND       PRES   REMARKS
MANITOWISH WTR RAIN      49  49  99 SE7       30.16F
ARBOR VITAE    LGT RAIN  52  50  93 E3        30.17F
WOODRUFF       LGT RAIN  52  50  93 E3        30.17F
RHINELANDER    CLOUDY    54  51  90 E10       30.18F
EAGLE RIVER    CLOUDY    56  43  61 SE3       30.18F
LAND O LAKES   CLOUDY    57  44  62 SE8       30.20S
PHILLIPS       CLOUDY    53  51  93 SE9       30.14F
TOMAHAWK       CLOUDY    52  50  93 SE5       30.18S
MEDFORD        PTSUNNY   60  54  82 SE8       30.14F
MERRILL        CLOUDY   N/A N/A N/A E7        30.18F
$$

WIZ029-030-035-036-043>047-061800-
CENTRAL WISCONSIN

CITY           SKY/WX    TMP DP  RH WIND       PRES   REMARKS
WAUSAU         CLOUDY    60  53  77 E8        30.15F
MOSINEE        CLOUDY    63  57  82 SE9       30.16F
MARSHFIELD     PTSUNNY   66  53  63 SE9       30.14F
STEVENS POINT  PTSUNNY   60  52  75 E9        30.17S
WAUPACA        PTSUNNY   65  53  64 E10       30.18S
WAUTOMA        PTSUNNY   64  55  72 VRB7      30.17F
WISC RAPIDS    MOSUNNY   69  54  58 SE8       30.14F
CAMP DOUGLAS   NOT AVBL
$$

WIZ011>013-019>022-031-037>040-048>050-061800-
NORTHEAST WISCONSIN

CITY           SKY/WX    TMP DP  RH WIND       PRES   REMARKS
ANTIGO         CLOUDY    55  53  95 SE9       30.19F
SHAWANO        CLOUDY    56  52  85 E6        30.20F
OCONTO         PTSUNNY   57  49  74 E8        30.21F
STURGEON BAY   PTSUNNY   54  43  66 E3        30.25S
GREEN BAY      PTSUNNY   62  54  74 SE9       30.19F
MANITOWOC        N/A     50  50 100 MISG        N/A
APPLETON       NOT AVBL
CLINTONVILLE   PTSUNNY   55  50  82 E5        30.19F
OSHKOSH        PTSUNNY   60  53  77 E10       30.18S
$$

WIZ032>034-041-042-053>061-061800-
SOUTHWEST WISCONSIN

CITY           SKY/WX    TMP DP  RH WIND       PRES   REMARKS
LA CROSSE      PTSUNNY   67  58  72 VRB6      30.08F
SPARTA         PTSUNNY   65  56  70 E7        30.11F
VIROQUA        PTSUNNY   61  61 100 SE5       30.11F
BOSCOBEL       MOSUNNY   71  59  65 E6        30.10F
PRAIRIE DU CHI PTSUNNY   65  57  74 SE8       30.09F
PLATTEVILLE    PTSUNNY   64  61  88 SE9       30.12F
$$

WIZ056-057-062-063-064-067-068-061800-
SOUTH CENTRAL WISCONSIN

CITY           SKY/WX    TMP DP  RH WIND       PRES   REMARKS
REEDSBURG      CLOUDY    61  58  90 SE5       30.14F
BARABOO/DELLS  NOT AVBL
LONE ROCK      NOT AVBL
MINERAL POINT  MOSUNNY   64  59  82 SE8       30.13F
MADISON        PTSUNNY   60  57  89 E6        30.14S FOG
MIDDLETON      CLOUDY    60  58  93 CALM      30.15F
WATERTOWN      LGT RAIN  59  59  99 NE6       30.15F
MONROE         CLOUDY    59  59 100 E6        30.15S FOG
JANESVILLE     PTSUNNY   68  61  77 SE8       30.15S HAZE
$$

WIZ051-052-058>065-066-070>072-061800-
SOUTHEAST WISCONSIN

CITY           SKY/WX    TMP DP  RH WIND       PRES   REMARKS
MILWAUKEE      PTSUNNY   52  48  86 E8        30.19F
WAUKESHA       CLOUDY    54  52  94 N3        30.20S FOG
MILWAUKEE/TIMM RAIN      52  46  82 SE6       30.21S
RACINE         CLOUDY    52  48  86 NE7       30.21S FOG
BURLINGTON     MOSUNNY   62  56  80 E5        30.18S
KENOSHA        CLOUDY    58  53  84 E9        30.19S
FOND DU LAC    LGT RAIN  61  55  81 S10       30.18F
SHEBOYGAN      CLOUDY    54  51  90 SE8       30.21S
WEST BEND      CLOUDY    54  48  82 E9        30.20F
JUNEAU         LGT RAIN  58  56  93 E8        30.19S
$$

LSZ147-162-061800-
LAKE SUPERIOR

STATION/POSITION TIME  TEMP    WIND        PRES    WAVE
                       AIR SEA DIR/SP/G            HT/PER
                 (UTC) (F)     (DEG/KT/KT) (MB)    (FT/S)
W MID LAKE BUOY  1550   40 36   90/  6/  6 1022.2F   0
DEVILS ISLAND    1600   49     100/  6/  7 1021.1F
PORT WING        1600   40      30/  9/ 11 1020.0F
SAXON HARBOR     1600   59      CALM  /  6 1020.3
$$

LMZ867-665-643>646-061800-
LAKE MICHIGAN

STATION/POSITION TIME  TEMP    WIND        PRES    WAVE
                       AIR SEA DIR/SP/G            HT/PER
                 (UTC) (F)     (DEG/KT/KT) (MB)    (FT/S)
CHAMBERS ISLAND  1600   52     350/  1/  3 1023.7S
NORTHPORT PIER   1600   44     140/  4/  5 1024.0S
SISTER BAY       1602   61     120/  9/ 13   N/A
KEWAUNEE LAKESHO 1600   46      50/  3/  5 1022.6F
SHEBOYGAN LAKESH 1600   44     100/  3/  3 1024.1F
PORT WASHINGTON  1640   46      50/  7/  9 1023.0F
ATWATER BUOY     1630   43      50/  4/  6 1024.0F
MILWAUKEE LAKESH 1600   43      60/  5/  6   N/A
KENOSHA   LAKESH 1600   44      30/  6/  6 1022.7S
$$

TC  - TEMPERATURE IN CELSIUS
VSB - VISIBILITY IN STATUTE MILES
WCI - WIND CHILL INDEX
HX  - HEAT INDEX



USA.gov is the U.S. government's official web portal to all federal, state and local government web resources and services.